Regional Weather Roundup
Issued by NWS Little Rock, AR

Home | Current Version | Previous Version | Graphics & Text | Print | Product List | Glossary On
Versions: 1 2 3 4 5 6 7 8 9 10 11 12 13 14 15 16 17 18 19 20 21 22 23 24 25 26 27
000
ASUS44 KLZK 041205
RWRLZK

WEATHER ROUNDUP FOR ARKANSAS
NATIONAL WEATHER SERVICE LITTLE ROCK AR
700 AM CDT WED MAY 04 2016

NOTE: "FAIR" INDICATES FEW OR NO CLOUDS BELOW 12,000 FEET WITH NO
SIGNIFICANT WEATHER AND/OR OBSTRUCTIONS TO VISIBILITY.

ARZ001-003-010-029-041300-
NORTHWEST ARKANSAS

CITY           SKY/WX    TMP DP  RH WIND       PRES   REMARKS
FAYETTEVILLE   CLEAR     54  48  80 SW10      29.96S
6HR MIN TEMP:  43; 6HR MAX TEMP:  54;

FORT SMITH     PTCLDY    51  45  79 W8        29.98S
6HR MIN TEMP:  49; 6HR MAX TEMP:  55;

HARRISON       CLEAR     58  44  60 W13G28    29.90F
6HR MIN TEMP:  50; 6HR MAX TEMP:  58;

BENTONVILLE    CLEAR     52  43  71 W7        29.95S
ROGERS         PTCLDY    50  45  83 SW7       29.95S
6HR MIN TEMP:  49; 6HR MAX TEMP:  53;

SILOAM SPGS    CLEAR     50  39  66 W8        29.96S
6HR MIN TEMP:  48; 6HR MAX TEMP:  50;

HIGHFILL       CLEAR     52  47  83 W9        29.94S
6HR MIN TEMP:  49; 6HR MAX TEMP:  52;

SPRINGDALE     CLEAR     55  46  71 W12       29.97S
$$

ARZ004-005-016-041300-
NORTH CENTRAL ARKANSAS

CITY           SKY/WX    TMP DP  RH WIND       PRES   REMARKS
BATESVILLE     PTCLDY    54  45  71 W6        29.90S
6HR MIN TEMP:  46; 6HR MAX TEMP:  54;

FLIPPIN        CLEAR    N/A N/A N/A W10       29.85F
MTN HOME       CLEAR     50  43  77 CALM      29.87F
6HR MIN TEMP:  46; 6HR MAX TEMP:  50;

$$

ARZ040-041-041300-
WEST CENTRAL ARKANSAS

CITY           SKY/WX    TMP DP  RH WIND       PRES   REMARKS
MENA           PTCLDY    57  46  67 SW9       30.00S
MOUNT IDA      CLEAR     47  45  93 CALM      29.95S
6HR MIN TEMP:  46; 6HR MAX TEMP:  49;

$$

ARZ009-017-025-026-028-041300-
NORTHEAST ARKANSAS

CITY           SKY/WX    TMP DP  RH WIND       PRES   REMARKS
CORNING          N/A     52  48  87 SW8       29.86F
JONESBORO      CLEAR     53  46  77 SW6       29.88S
6HR MIN TEMP:  50; 6HR MAX TEMP:  55;

NEWPORT        PTCLDY    53  48  83 SW6       29.90F
6HR MIN TEMP:  51; 6HR MAX TEMP:  55;

WALNUT RIDGE   PTCLDY    50  43  76 SW8       29.87S
6HR MIN TEMP:  50; 6HR MAX TEMP:  54;

BLYTHEVILLE    SUNNY     53  48  83 SW7       29.87F
6HR MIN TEMP:  52; 6HR MAX TEMP:  55;

$$

ARZ022-023-033-042-044-041300-
CENTRAL ARKANSAS

CITY           SKY/WX    TMP DP  RH WIND       PRES   REMARKS
LITTLE ROCK    PTCLDY    52  46  80 SW9       29.95S
6HR MIN TEMP:  50; 6HR MAX TEMP:  55;

N LITTLE ROCK    N/A     56  45  68 CALM      29.93S
6HR MIN TEMP:  54; 6HR MAX TEMP:  57;

JACKSONVILLE   PTCLDY    50  47  91 W5        29.93S
6HR MIN TEMP:  48; 6HR MAX TEMP:  51;

SEARCY         PTCLDY    46  46 100 CALM      29.94S
6HR MIN TEMP:  45; 6HR MAX TEMP:  50;

HOT SPRINGS    CLEAR     49  47  93 W3        29.98R
6HR MIN TEMP:  48; 6HR MAX TEMP:  52;

RUSSELLVILLE   PTCLDY    46  46 100 CALM      29.95F
6HR MIN TEMP:  45; 6HR MAX TEMP:  50;

$$

ARZ036-041300-
EAST ARKANSAS

CITY           SKY/WX    TMP DP  RH WIND       PRES   REMARKS
WEST MEMPHIS   CLEAR     53  50  89 CALM      29.90S
6HR MIN TEMP:  52; 6HR MAX TEMP:  55;

$$

ARZ050-053-066-070-073-041300-
SOUTHWEST ARKANSAS

CITY           SKY/WX    TMP DP  RH WIND       PRES   REMARKS
ARKADELPHIA    FAIR      53  53 100 SW3       29.99R
6HR MIN TEMP:  52; 6HR MAX TEMP:  57;

CAMDEN         CLEAR     48  46  93 CALM      29.99R
TEXARKANA      CLEAR     51  48  89 SW3       30.01R
6HR MIN TEMP:  50; 6HR MAX TEMP:  57;

EL DORADO      CLEAR     50  49  96 CALM      29.99S
6HR MIN TEMP:  49; 6HR MAX TEMP:  52;

DE QUEEN       PTCLDY    46  46 100 CALM      30.00S
6HR MIN TEMP:  45; 6HR MAX TEMP:  50;

$$

ARZ056-057-069-041300-
SOUTHEAST ARKANSAS

CITY           SKY/WX    TMP DP  RH WIND       PRES   REMARKS
PINE BLUFF     CLEAR     52  48  86 W5        29.96S
6HR MIN TEMP:  51; 6HR MAX TEMP:  55;

STUTTGART      PTCLDY    55  48  76 SW8       29.94F
6HR MIN TEMP:  54; 6HR MAX TEMP:  57;

MONTICELLO     CLEAR     52  48  86 W5        29.97R
6HR MIN TEMP:  51; 6HR MAX TEMP:  54;


$$






USA.gov is the U.S. government's official web portal to all federal, state and local government web resources and services.